This is the latest recevied weather packets stored in our database for station/object EW8324. If no packets are shown the sender has not sent any weather packets the latest 10 day(s).
| Time | Temp. | Humidity | Pressure | Rain* | Wind** | Luminosity | Snow |
|---|---|---|---|---|---|---|---|
| 1777845269 | 26.67° C | 37% | 1014 hPa | 0 mm | - | 149 W/m² | - |
| 1777845032 | 26.67° C | 39% | 1013.9 hPa | 0 mm | - | 283 W/m² | - |
| 1777844668 | 26.11° C | 37% | 1014 hPa | 0 mm | - | 267 W/m² | - |
| 1777844372 | 26.11° C | 37% | 1014.1 hPa | 0.25 mm | - | 489 W/m² | - |
| 1777844069 | 26.11° C | 36% | 1014.3 hPa | 0.25 mm | - | 364 W/m² | - |
| 1777843831 | 26.67° C | 36% | 1014.4 hPa | 0.25 mm | - | 536 W/m² | - |
| 1777843530 | 26.67° C | 37% | 1014.5 hPa | 0.25 mm | - | 417 W/m² | - |
| 1777843160 | 26.67° C | 38% | 1014.5 hPa | 0.25 mm | - | 262 W/m² | - |
| 1777842929 | 26.67° C | 37% | 1014.6 hPa | 0.25 mm | - | 72 W/m² | - |
| 1777842631 | 26.67° C | 39% | 1014.5 hPa | 0.25 mm | - | 67 W/m² | - |
| 1777842270 | 26.67° C | 37% | 1014.5 hPa | 0.25 mm | - | 69 W/m² | - |
| 1777841974 | 26.67° C | 37% | 1014.6 hPa | 0.25 mm | - | 70 W/m² | - |
| 1777841669 | 26.67° C | 36% | 1014.8 hPa | 0.25 mm | - | 76 W/m² | - |
| 1777841372 | 26.67° C | 35% | 1014.9 hPa | 0.51 mm | - | - | - |
| 1777841070 | 26.67° C | 37% | 1015 hPa | 0.51 mm | - | 127 W/m² | - |
| 1777840830 | 26.67° C | 37% | 1015.1 hPa | 0.25 mm | - | 248 W/m² | - |
| 1777840469 | 27.22° C | 37% | 1015.2 hPa | 0.25 mm | - | 109 W/m² | - |
| 1777840175 | 27.78° C | 36% | 1015.2 hPa | 0.25 mm | - | 100 W/m² | - |
| 1777839868 | 27.78° C | 35% | 1015.3 hPa | 0.25 mm | - | 90 W/m² | - |
| 1777839570 | 27.78° C | 37% | 1015.4 hPa | 0.25 mm | - | 171 W/m² | - |
| 1777839267 | 27.78° C | 34% | 1015.4 hPa | 0.25 mm | - | 137 W/m² | - |
| 1777838975 | 28.33° C | 37% | 1015.6 hPa | 0.25 mm | - | 840 W/m² | - |
| 1777838670 | 28.33° C | 39% | 1015.7 hPa | 0.25 mm | - | - | - |
| 1777838370 | 27.78° C | 38% | 1015.8 hPa | 0.51 mm | - | 869 W/m² | - |
| 1777838067 | 27.78° C | 36% | 1015.9 hPa | 0.51 mm | - | 877 W/m² | - |
* Rain latest hour (hover to see other rain measurements)
** Current wind speed in m/s (hover to see current wind gust speed)